Вернуться в каталог

NOAA 16 DEB

АктивенSSO
NORAD 41412·DEBRIS·🇺🇸 United States

Запущен Sep 21, 2000 с Vandenberg Space Force Base

Loading…

Ближайшие Пролёты (ближайшие 24 часа)

TLE

СвежийSource: Space-Track

Эпоха: Sep 14, 2026, 12:31 UTC

1 41412U 00055KR  26257.52210653  .00002831  00000-0  11437-2 0  9990
2 41412  98.6165 278.1718 0024694 188.9568 171.1176 14.28490029545011

Отслеживайте NOAA 16 DEB в реальном времени с AllMySat

Download on the App Store